Wind_Speed
46 47 47 48 48 48 48 48 48 48 47 47 46 45 44 43 43 42 42 42 41 41 41 41 41 41 41 41 40 40 40 40 41 41 41 41 41 40 40 39 39 39 39 39 39 39 39 39 39 39 39 39
47 47 48 48 48 48 48 47 47 47 46 46 45 45 44 44 43 43 43 43 42 43 42 43 43 42 42 42 41 41 41 42 42 42 42 42 42 41 41 40 40 39 39 39 39 40 40 40 40 40 40 40
47 47 47 47 47 47 47 47 46 46 46 46 45 45 45 45 44 44 44 44 44 44 44 44 44 43 43 42 42 42 42 42 42 43 43 43 42 42 42 41 41 40 40 40 41 41 41 41 41 41 42 42
45 46 46 46 46 46 46 46 46 46 46 46 46 46 46 46 46 46 45 45 45 45 45 45 44 44 43 43 43 43 43 43 43 43 43 43 43 43 43 42 42 42 42 42 43 43 43 43 43 43 43 43
45 45 46 46 46 46 46 46 46 47 47 47 47 47 47 47 47 47 46 46 46 46 46 45 45 44 44 44 44 44 44 44 44 44 44 44 44 44 44 44 44 44 44 44 44 44 44 44 45 45 45 45
45 46 46 47 47 47 47 47 47 47 47 47 47 47 47 47 47 47 46 46 46 46 46 45 45 44 44 44 44 45 45 45 45 46 46 46 45 45 45 45 45 45 45 45 45 46 46 46 46 46 46 47
47 47 48 48 48 48 48 48 48 48 48 47 47 47 47 47 47 47 46 46 46 45 45 45 45 45 45 45 45 46 46 46 47 47 47 47 47 47 47 46 46 46 47 47 47 47 47 48 48 48 48 48
48 49 49 49 49 49 49 49 49 49 49 49 49 49 48 48 48 48 47 46 46 46 46 46 45 45 45 46 46 46 47 47 47 48 48 48 48 48 48 48 48 48 48 49 49 49 49 49 50 50 50 50
50 50 50 50 50 50 50 50 50 50 50 50 50 50 49 49 49 48 48 47 47 47 47 47 47 47 47 47 47 48 48 48 48 48 48 48 49 49 49 49 49 50 50 50 51 51 51 51 51 51 51 51
50 51 51 51 51 51 51 51 51 51 51 50 50 50 50 49 49 48 48 47 47 47 48 48 48 48 48 48 49 49 49 49 49 49 49 50 50 50 50 50 51 51 51 52 52 52 52 52 52 52 52 52
50 51 51 51 51 50 51 51 51 51 51 50 50 50 49 49 48 48 48 48 48 48 48 48 49 49 49 49 49 49 50 50 50 50 51 51 51 51 52 52 52 52 53 53 53 54 54 54 54 54 54 54
51 50 50 49 49 49 50 50 50 50 50 50 50 49 49 49 49 49 49 49 49 49 49 49 49 49 49 50 50 50 50 51 51 52 52 52 52 53 53 53 54 54 54 55 55 55 55 56 56 56 56 56
51 50 49 49 48 48 48 49 49 50 50 50 49 49 49 49 49 49 49 49 49 49 49 49 50 50 50 50 51 51 52 52 53 53 53 53 54 54 54 55 55 56 56 56 57 57 57 57 58 58 58 58
51 50 49 49 49 48 48 49 49 49 49 49 49 49 49 49 49 49 49 50 50 50 50 50 50 50 51 51 52 52 53 53 54 54 54 54 55 55 56 56 56 57 57 58 58 58 59 59 59 60 60 60
51 50 50 50 50 49 49 50 49 49 50 49 49 49 50 50 50 50 50 50 50 51 51 51 51 52 52 53 53 54 54 54 55 55 55 56 56 56 57 57 58 58 59 59 60 60 60 61 61 61 61 61
51 51 51 51 50 50 50 50 50 50 50 50 50 50 51 51 51 51 51 51 51 52 52 52 53 53 54 54 55 55 56 56 56 56 57 57 58 58 59 59 59 60 60 61 61 61 62 62 62 63 63 63
51 50 51 51 51 50 51 51 51 52 51 51 51 51 52 52 52 52 52 52 53 53 53 54 54 55 55 56 56 57 57 57 57 58 58 59 59 60 60 61 61 61 62 62 62 63 63 63 64 64 64 64
51 50 51 51 51 51 51 51 51 52 52 52 52 52 53 53 53 53 54 54 54 55 55 56 56 57 57 57 58 58 58 59 59 59 60 60 61 61 62 62 62 63 63 64 64 64 65 65 65 65 65 66
50 50 51 51 52 51 52 52 52 53 53 53 53 53 54 54 55 55 55 56 57 57 57 58 58 58 59 59 59 60 60 60 60 61 61 62 62 63 63 63 64 64 65 65 65 66 66 66 66 66 67 67
50 50 50 51 52 52 52 53 54 54 53 54 54 54 56 56 56 57 57 58 59 59 59 60 60 60 60 61 61 61 61 61 62 62 63 63 64 64 64 65 65 65 65 66 66 66 66 67 67 68 68 68
51 51 51 51 52 52 53 54 54 54 54 55 55 56 57 58 58 59 59 60 60 61 61 61 61 62 62 62 62 62 62 62 63 64 64 65 65 65 65 65 66 66 66 66 67 67 67 68 68 69 69 70
53 53 53 53 54 53 54 55 55 55 56 56 57 58 59 59 60 61 61 62 62 62 63 63 63 62 62 62 62 62 63 64 64 65 65 66 66 66 66 66 66 66 67 67 68 68 69 70 70 70 71 70
56 56 56 56 57 56 56 57 57 58 58 59 59 60 61 62 63 63 63 64 64 64 64 64 63 62 62 62 63 63 64 65 66 66 66 66 66 66 66 67 67 67 68 69 69 70 71 71 72 72 71 71
58 58 58 59 59 59 58 59 60 61 61 61 62 62 63 63 64 64 65 65 65 65 64 63 62 62 62 63 64 65 66 66 67 67 67 67 67 67 67 67 68 69 69 70 71 72 73 73 73 73 72 72
58 58 59 60 60 60 60 61 62 62 62 62 63 63 64 64 65 65 65 65 65 65 64 63 62 62 63 64 65 67 68 68 68 68 68 67 67 67 68 68 69 70 71 72 73 73 74 74 74 74 74 73
56 57 58 59 60 61 61 62 63 63 63 63 63 64 64 64 64 65 65 65 65 65 64 63 63 63 65 66 68 69 70 69 69 69 68 68 68 69 69 70 70 71 72 73 74 75 75 75 75 75 75 74
56 56 57 58 59 59 60 61 62 63 63 63 62 63 63 63 63 64 64 65 65 65 64 64 65 66 67 69 70 71 71 70 70 69 69 69 69 70 71 71 71 72 73 75 76 76 76 77 77 76 75 75
56 56 57 57 58 59 60 60 61 62 62 62 62 62 62 63 63 64 65 66 66 66 66 67 67 68 70 71 72 72 72 71 70 70 70 71 72 72 72 72 73 74 75 76 77 78 78 79 79 78 77 77
57 57 57 58 59 59 60 61 61 62 62 62 63 63 64 64 64 65 67 68 68 68 69 69 69 70 71 72 73 73 72 71 71 71 71 72 73 73 73 74 74 75 76 77 78 79 79 80 80 79 79 79
58 58 58 59 59 60 60 61 62 62 63 64 64 64 65 65 66 67 68 69 69 69 69 69 70 71 72 73 73 73 73 72 72 72 73 74 75 75 75 76 76 76 77 78 79 80 80 80 80 80 81 80
58 58 59 59 60 61 61 62 62 63 64 65 65 65 66 67 67 68 69 69 69 69 69 70 71 72 73 74 74 75 75 75 75 75 76 76 76 77 77 77 77 78 79 80 81 81 81 81 81 80 81 81
Wind_Direction
264 264 264 264 264 265 265 266 267 267 267 268 267 267 268 268 268 268 268 268 268 268 267 267 267 267 267 267 267 268 268 268 268 268 267 266 266 265 264 264 263 263 263 263 264 264 264 264 264 264 264 265
266 265 265 265 265 265 266 266 266 266 267 267 267 267 267 267 267 267 267 267 268 267 267 267 267 267 267 267 267 267 267 267 267 267 266 266 265 265 264 263 263 263 263 263 263 263 263 263 264 264 264 265
266 266 266 266 265 266 266 266 266 266 267 267 267 267 267 268 267 267 267 267 267 267 267 267 267 267 267 267 267 267 267 266 266 265 265 265 264 264 264 263 263 263 263 262 262 262 263 263 263 263 263 264
266 266 266 266 266 266 266 266 266 266 267 267 267 267 267 267 267 267 267 267 267 267 267 267 267 267 267 267 267 267 267 266 266 265 264 264 264 263 263 263 262 262 262 262 262 262 263 263 263 264 264 264
265 266 266 266 266 266 266 266 266 267 267 267 267 267 267 267 267 267 267 267 267 267 267 267 267 267 267 267 267 267 267 266 266 265 265 264 264 263 263 263 262 262 263 263 263 263 263 264 264 265 265 265
265 265 265 266 266 266 267 267 267 267 267 267 267 267 267 267 267 266 266 266 267 267 267 267 267 267 267 267 267 266 266 266 265 265 265 264 264 264 264 264 264 264 264 264 264 264 264 265 265 265 266 266
265 265 265 266 266 267 267 267 267 267 267 267 267 267 267 267 266 266 266 266 267 267 267 267 267 267 267 266 266 266 265 265 265 265 265 265 265 265 265 265 265 265 265 265 265 265 265 265 266 266 266 267
266 266 266 266 266 266 267 267 267 267 268 267 267 267 266 266 265 265 265 266 266 267 267 267 267 267 266 266 266 265 265 265 265 265 265 265 265 265 265 266 266 266 266 266 266 266 266 266 267 267 267 268
267 267 267 267 267 267 267 267 268 268 268 267 267 267 266 266 265 265 265 266 266 266 267 267 267 266 266 266 266 266 266 266 265 265 265 265 265 265 265 265 265 266 266 266 267 267 267 267 268 268 268 269
269 269 268 269 269 269 269 269 268 268 268 268 267 267 266 266 266 266 266 267 267 267 267 267 266 266 266 266 265 265 265 265 265 265 265 265 265 265 265 265 265 266 266 267 267 267 268 268 268 268 268 269
271 271 271 272 272 271 271 270 270 269 268 268 268 267 267 267 267 267 267 267 267 267 267 266 266 265 265 265 265 265 265 265 265 265 265 265 265 265 265 266 266 266 267 267 267 267 268 268 268 268 268 269
273 273 274 274 273 273 272 272 271 270 269 269 268 268 267 267 267 267 267 267 266 266 266 266 265 265 265 265 265 265 265 265 265 265 266 266 266 266 266 266 266 267 267 267 267 267 268 268 268 268 268 269
274 274 274 274 274 273 273 272 271 271 270 269 269 268 267 267 267 266 266 266 266 266 265 265 265 265 265 265 265 265 265 265 265 266 266 266 266 266 266 266 266 267 267 267 267 268 268 268 268 269 269 269
273 274 274 274 274 273 272 271 271 271 270 269 269 269 268 267 267 267 266 266 266 266 265 265 265 265 265 265 265 265 266 266 266 266 266 266 266 266 266 266 267 267 267 268 268 268 269 269 269 269 269 270
272 273 273 273 273 272 272 271 271 270 270 270 269 268 268 268 267 267 267 266 266 266 266 266 266 266 266 266 266 266 266 266 266 266 266 266 266 266 267 267 268 268 268 268 269 269 269 269 270 270 270 270
271 271 272 272 272 272 271 271 271 270 270 270 269 269 268 268 268 267 267 267 267 267 267 267 266 266 267 267 267 267 267 267 267 267 267 267 267 267 268 268 268 268 269 269 269 269 269 270 270 270 271 271
271 271 272 272 272 272 271 272 271 271 271 271 270 270 269 269 269 269 268 268 268 267 267 267 267 267 267 267 267 267 267 267 267 267 267 268 268 268 269 269 269 269 269 269 269 270 270 270 270 271 271 271
272 272 272 272 272 272 272 272 272 271 271 271 270 270 270 270 270 269 269 269 268 268 268 268 268 268 268 268 268 268 268 268 268 268 268 269 269 269 269 269 269 269 269 269 269 270 270 270 270 271 271 272
273 273 273 273 272 273 273 272 271 271 271 271 271 270 270 270 270 269 269 269 268 268 268 268 268 268 268 268 268 268 268 269 269 269 269 269 269 269 269 269 269 269 269 269 269 270 270 270 271 271 271 272
273 273 273 273 272 272 272 271 271 271 270 270 270 270 270 270 269 269 269 268 268 268 268 268 268 268 268 268 268 268 269 269 269 269 269 268 268 268 268 269 269 269 269 270 270 270 271 271 271 272 272 272
272 272 272 272 272 271 271 271 271 271 270 270 270 269 269 269 269 269 268 268 268 268 268 268 268 267 267 268 268 268 268 268 268 268 268 268 268 268 268 269 269 270 270 271 271 271 271 272 272 272 272 273
270 270 271 271 271 271 271 271 270 270 270 269 269 268 268 268 268 268 267 267 267 267 267 267 267 267 267 267 268 268 268 267 267 267 268 268 268 269 269 270 270 271 271 271 271 271 271 272 272 272 273 274
270 270 270 270 270 270 270 270 270 269 269 269 268 267 267 267 267 267 267 267 267 267 267 267 267 267 267 267 267 267 267 267 267 267 268 268 269 269 270 270 271 271 271 271 271 271 272 272 272 273 274 275
271 270 270 270 270 270 270 269 269 269 269 268 268 267 267 267 267 267 267 268 268 268 268 268 268 268 268 268 267 267 267 267 267 267 268 269 270 270 271 271 271 271 271 272 272 272 272 273 274 274 275 275
270 270 269 269 269 269 269 269 268 268 268 268 268 268 268 268 268 268 268 268 268 268 268 269 268 268 268 268 267 267 267 267 268 268 269 270 270 271 271 271 271 272 272 272 272 273 273 274 274 274 274 274
270 269 269 269 269 268 268 268 269 269 268 268 268 268 269 268 268 268 269 269 269 269 269 269 268 268 268 267 267 267 267 268 268 269 270 271 271 271 271 271 271 272 272 272 273 273 273 274 274 274 274 274
270 270 270 269 269 269 269 269 269 269 269 270 270 270 269 269 269 269 269 269 269 268 268 268 267 267 267 267 267 268 268 269 269 270 271 271 271 270 271 271 272 272 272 273 273 273 273 273 273 273 274 273
269 269 269 269 269 269 269 269 269 269 270 270 269 269 268 268 267 267 267 267 267 267 267 267 267 267 267 267 268 268 269 270 270 271 271 270 270 270 271 271 271 272 272 273 273 273 273 273 273 273 273 273
269 269 269 269 269 269 269 269 269 269 269 268 268 267 267 267 267 267 267 267 268 268 268 268 268 268 268 268 269 269 270 270 270 270 270 270 270 271 271 271 271 271 272 272 272 272 273 273 273 274 274 274
269 268 268 268 268 268 268 268 268 268 268 268 267 267 267 267 267 267 267 268 268 268 268 268 268 268 268 268 269 270 270 270 270 270 270 270 271 271 271 271 271 271 271 271 271 272 272 273 273 274 274 274
269 269 269 269 268 268 268 268 268 267 267 267 267 267 267 266 266 267 267 267 268 268 268 268 268 268 268 269 269 269 270 270 270 270 270 270 271 271 270 270 270 270 270 270 271 271 272 272 273 273 274 274
Height
5772 5772 5772 5772 5772 5772 5772 5773 5773 5773 5773 5773 5773 5773 5773 5773 5773 5774 5774 5775 5775 5776 5777 5777 5778 5778 5778 5778 5778 5778 5779 5779 5780 5780 5781 5781 5782 5782 5782 5782 5782 5782 5783 5783 5784 5784 5785 5785 5786 5787 5787 5787
5767 5768 5768 5768 5768 5768 5768 5768 5768 5768 5768 5768 5769 5769 5769 5769 5769 5770 5770 5771 5771 5772 5772 5773 5773 5773 5773 5773 5774 5774 5774 5775 5775 5776 5776 5777 5777 5777 5777 5777 5778 5778 5778 5779 5779 5780 5780 5781 5781 5782 5782 5783
5763 5763 5763 5764 5764 5764 5764 5764 5764 5764 5764 5764 5764 5764 5764 5765 5765 5765 5766 5766 5767 5767 5768 5768 5768 5768 5769 5769 5769 5769 5770 5770 5771 5771 5772 5772 5772 5772 5772 5772 5773 5773 5773 5774 5774 5775 5776 5776 5777 5777 5778 5778
5759 5759 5759 5760 5760 5760 5760 5760 5760 5760 5760 5760 5760 5760 5760 5760 5761 5761 5761 5762 5762 5762 5763 5763 5763 5763 5763 5764 5764 5765 5765 5765 5766 5766 5767 5767 5767 5767 5767 5767 5768 5768 5768 5769 5769 5770 5771 5771 5772 5772 5773 5773
5755 5755 5755 5755 5755 5755 5756 5756 5756 5756 5756 5756 5756 5756 5756 5756 5756 5757 5757 5757 5757 5757 5758 5758 5758 5758 5758 5759 5759 5760 5760 5760 5761 5761 5761 5762 5762 5762 5762 5762 5762 5763 5763 5764 5764 5765 5765 5766 5766 5767 5767 5768
5751 5751 5751 5751 5751 5751 5751 5751 5751 5751 5751 5751 5752 5752 5752 5752 5752 5752 5752 5752 5753 5753 5753 5753 5753 5753 5753 5754 5754 5755 5755 5755 5756 5756 5756 5756 5757 5757 5757 5757 5757 5758 5758 5759 5759 5760 5760 5761 5761 5762 5762 5763
5747 5746 5746 5746 5747 5747 5747 5747 5747 5747 5747 5747 5747 5747 5748 5747 5747 5748 5748 5748 5748 5748 5748 5748 5748 5748 5749 5749 5749 5750 5750 5750 5751 5751 5751 5751 5751 5752 5752 5752 5752 5753 5753 5754 5754 5754 5755 5756 5756 5756 5757 5757
5742 5742 5742 5742 5742 5742 5742 5742 5742 5742 5742 5742 5742 5743 5742 5742 5742 5743 5743 5743 5743 5743 5743 5743 5743 5744 5744 5744 5745 5745 5745 5745 5745 5745 5745 5746 5746 5746 5747 5747 5747 5747 5748 5748 5749 5749 5749 5750 5751 5751 5751 5751
5737 5737 5737 5737 5737 5737 5737 5737 5737 5737 5737 5737 5737 5737 5737 5737 5737 5737 5737 5738 5738 5738 5738 5738 5739 5739 5739 5739 5739 5740 5740 5740 5740 5740 5740 5740 5741 5741 5741 5742 5742 5742 5742 5743 5743 5743 5744 5744 5745 5745 5745 5746
5732 5732 5732 5732 5732 5732 5732 5732 5732 5732 5732 5732 5732 5732 5732 5732 5732 5732 5732 5732 5733 5733 5733 5733 5733 5734 5734 5734 5734 5735 5735 5735 5735 5735 5735 5735 5735 5736 5736 5736 5736 5736 5737 5737 5737 5737 5738 5738 5739 5739 5740 5740
5727 5727 5727 5727 5727 5727 5727 5727 5727 5727 5727 5727 5727 5727 5727 5727 5727 5727 5727 5727 5727 5728 5728 5728 5728 5728 5729 5729 5729 5729 5729 5730 5730 5730 5730 5730 5730 5730 5730 5730 5731 5731 5731 5731 5731 5732 5732 5732 5733 5733 5734 5735
5722 5722 5722 5722 5721 5721 5721 5721 5721 5721 5721 5721 5721 5722 5722 5722 5722 5722 5722 5722 5722 5722 5722 5722 5723 5723 5723 5723 5724 5724 5724 5724 5724 5724 5724 5724 5724 5724 5724 5725 5725 5725 5725 5725 5725 5725 5726 5726 5727 5727 5728 5729
5716 5717 5717 5716 5716 5716 5716 5716 5716 5716 5716 5716 5716 5716 5716 5716 5716 5716 5716 5716 5717 5717 5717 5717 5717 5717 5718 5718 5718 5718 5718 5718 5718 5718 5718 5718 5718 5718 5718 5718 5719 5719 5719 5719 5719 5719 5719 5720 5720 5720 5721 5722
5710 5711 5711 5710 5710 5711 5710 5710 5711 5710 5710 5710 5711 5710 5710 5710 5711 5711 5711 5711 5711 5711 5711 5711 5711 5712 5712 5712 5712 5712 5712 5712 5712 5712 5712 5712 5712 5712 5712 5712 5712 5712 5712 5713 5713 5712 5713 5713 5713 5714 5714 5715
5705 5706 5706 5705 5705 5706 5705 5705 5706 5705 5704 5705 5705 5705 5704 5705 5705 5705 5705 5705 5705 5705 5705 5705 5705 5705 5705 5705 5705 5705 5705 5705 5705 5705 5705 5705 5706 5706 5706 5706 5706 5706 5706 5706 5706 5706 5706 5706 5706 5707 5707 5708
5700 5700 5700 5699 5700 5701 5699 5700 5700 5699 5699 5700 5699 5699 5698 5699 5699 5699 5699 5698 5698 5698 5699 5699 5699 5699 5699 5699 5698 5698 5698 5699 5699 5699 5699 5699 5699 5699 5699 5699 5699 5699 5699 5699 5699 5699 5699 5699 5699 5699 5700 5700
5694 5695 5694 5694 5694 5695 5694 5695 5695 5693 5694 5694 5694 5693 5692 5692 5693 5693 5693 5692 5692 5692 5692 5692 5692 5692 5692 5692 5691 5691 5692 5692 5692 5692 5692 5692 5692 5692 5692 5692 5692 5692 5692 5692 5692 5692 5692 5692 5692 5692 5692 5693
5689 5689 5689 5688 5689 5689 5689 5689 5688 5688 5688 5688 5688 5687 5686 5687 5687 5687 5687 5686 5686 5686 5686 5685 5685 5685 5685 5685 5685 5685 5685 5685 5686 5686 5686 5685 5685 5685 5685 5685 5685 5685 5685 5684 5684 5684 5684 5684 5685 5685 5685 5685
5683 5683 5683 5683 5683 5684 5683 5683 5682 5682 5683 5682 5682 5682 5680 5681 5680 5680 5680 5679 5679 5679 5679 5679 5679 5679 5678 5678 5678 5678 5679 5679 5679 5679 5678 5678 5678 5678 5678 5677 5677 5677 5677 5677 5677 5677 5676 5676 5677 5677 5677 5677
5677 5677 5678 5677 5677 5678 5677 5676 5676 5676 5677 5676 5676 5675 5674 5674 5674 5673 5673 5672 5672 5672 5672 5672 5672 5672 5671 5671 5671 5672 5672 5672 5672 5671 5671 5671 5670 5670 5670 5670 5670 5669 5669 5669 5668 5668 5668 5668 5668 5668 5668 5669
5671 5671 5672 5671 5670 5671 5671 5669 5670 5670 5670 5670 5669 5669 5667 5667 5666 5666 5666 5665 5665 5665 5665 5665 5665 5665 5664 5664 5665 5665 5665 5665 5664 5664 5663 5663 5663 5663 5662 5662 5662 5661 5661 5660 5660 5660 5659 5659 5659 5659 5660 5660
5665 5665 5665 5665 5664 5665 5665 5663 5663 5663 5663 5663 5662 5662 5661 5659 5659 5659 5658 5658 5658 5658 5657 5657 5657 5657 5657 5657 5658 5657 5657 5657 5656 5656 5656 5655 5655 5655 5654 5654 5653 5653 5652 5652 5651 5651 5651 5651 5651 5651 5651 5652
5659 5659 5659 5659 5657 5658 5658 5656 5656 5656 5656 5656 5655 5654 5653 5652 5651 5651 5650 5650 5650 5650 5650 5650 5651 5650 5650 5650 5650 5650 5650 5649 5648 5648 5648 5647 5647 5647 5646 5646 5645 5644 5644 5643 5642 5642 5642 5642 5642 5643 5644 5644
5653 5653 5652 5652 5651 5651 5651 5649 5648 5648 5648 5648 5647 5646 5646 5645 5643 5643 5643 5642 5643 5643 5643 5643 5644 5644 5643 5643 5642 5642 5641 5641 5640 5640 5640 5640 5639 5639 5638 5637 5637 5636 5635 5634 5633 5633 5633 5633 5633 5634 5635 5636
5645 5645 5645 5644 5644 5643 5643 5641 5640 5640 5641 5641 5640 5639 5638 5638 5636 5635 5636 5636 5635 5636 5636 5636 5636 5636 5635 5634 5634 5633 5633 5632 5632 5632 5632 5632 5631 5631 5630 5629 5628 5627 5626 5625 5624 5624 5624 5624 5624 5625 5626 5627
5638 5637 5637 5637 5636 5636 5635 5634 5633 5632 5633 5633 5633 5632 5631 5632 5630 5628 5629 5629 5628 5629 5629 5629 5628 5628 5627 5626 5625 5625 5625 5625 5625 5625 5624 5624 5623 5622 5621 5620 5619 5618 5617 5616 5615 5615 5615 5615 5615 5616 5617 5617
5631 5630 5630 5629 5629 5629 5628 5627 5626 5625 5625 5626 5626 5625 5625 5624 5623 5622 5622 5621 5621 5620 5620 5620 5620 5619 5618 5617 5617 5617 5617 5617 5617 5617 5616 5615 5614 5613 5613 5612 5611 5609 5608 5607 5606 5606 5606 5605 5604 5607 5608 5606
5624 5623 5622 5621 5621 5621 5621 5620 5619 5618 5618 5619 5619 5618 5617 5616 5615 5614 5613 5613 5612 5611 5611 5611 5611 5611 5610 5609 5609 5609 5609 5609 5609 5608 5607 5606 5605 5605 5605 5604 5602 5601 5599 5598 5596 5595 5596 5595 5594 5597 5598 5597
5616 5616 5615 5614 5613 5613 5613 5613 5613 5612 5611 5611 5610 5610 5609 5608 5607 5606 5605 5605 5604 5603 5603 5602 5602 5602 5602 5601 5600 5601 5601 5600 5600 5599 5598 5596 5595 5596 5596 5594 5593 5592 5591 5589 5586 5586 5586 5584 5584 5585 5585 5587
5608 5608 5608 5606 5606 5605 5605 5605 5605 5605 5603 5603 5602 5602 5601 5600 5599 5599 5598 5597 5597 5596 5594 5594 5593 5593 5593 5593 5592 5592 5592 5592 5591 5590 5588 5587 5586 5586 5586 5585 5584 5583 5582 5580 5577 5576 5576 5574 5575 5575 5574 5575
5602 5601 5601 5600 5599 5598 5597 5597 5597 5596 5595 5595 5595 5594 5593 5592 5591 5591 5591 5590 5589 5588 5586 5585 5584 5584 5584 5584 5584 5583 5582 5582 5581 5580 5579 5578 5577 5576 5575 5575 5575 5574 5571 5571 5570 5567 5566 5565 5565 5565 5563 5563